This is the latest recevied weather packets stored in our database for station/object DC4AT. If no packets are shown the sender has not sent any weather packets the latest 10 day(s).
| Time | Temp. | Humidity | Pressure | Rain* | Wind** | Luminosity | Snow |
|---|---|---|---|---|---|---|---|
| 1787521669 | 12.22° C | 79% | 1023.3 hPa | 0 mm | - | 0 W/m² | - |
| 1787521069 | 12.78° C | 78% | 1023.3 hPa | 0 mm | - | 0 W/m² | - |
| 1787520469 | 12.78° C | 78% | 1023.3 hPa | 0 mm | - | 0 W/m² | - |
| 1787519869 | 12.78° C | 78% | 1023.2 hPa | 0 mm | - | 0 W/m² | - |
| 1787519269 | 13.33° C | 78% | 1023.3 hPa | 0 mm | - | 0 W/m² | - |
| 1787518669 | 13.33° C | 79% | 1023.2 hPa | 0 mm | - | 0 W/m² | - |
| 1787518069 | 13.33° C | 78% | 1023.2 hPa | 0 mm | - | 0 W/m² | - |
| 1787517469 | 13.33° C | 77% | 1023.3 hPa | 0 mm | - | 0 W/m² | - |
| 1787516869 | 13.89° C | 76% | 1023.3 hPa | 0 mm | - | 0 W/m² | - |
| 1787516269 | 14.44° C | 74% | 1023.3 hPa | 0 mm | - | 0 W/m² | - |
| 1787515669 | 15° C | 73% | 1023.2 hPa | 0 mm | - | 0 W/m² | - |
| 1787515069 | 15° C | 72% | 1023.1 hPa | 0 mm | - | 0 W/m² | - |
| 1787514469 | 15.56° C | 71% | 1022.9 hPa | 0 mm | - | 0 W/m² | - |
| 1787513869 | 15.56° C | 70% | 1023.1 hPa | 0 mm | - | 0 W/m² | - |
| 1787513269 | 15.56° C | 70% | 1023 hPa | 0 mm | - | 0 W/m² | - |
| 1787512669 | 15.56° C | 69% | 1023.1 hPa | 0 mm | - | 0 W/m² | - |
| 1787512069 | 15.56° C | 68% | 1023.1 hPa | 0 mm | - | 0 W/m² | - |
| 1787511469 | 16.11° C | 67% | 1023 hPa | 0 mm | - | 0 W/m² | - |
| 1787510869 | 16.11° C | 66% | 1023 hPa | 0 mm | - | 0 W/m² | - |
| 1787510269 | 16.11° C | 66% | 1022.7 hPa | 0 mm | - | 0 W/m² | - |
| 1787509669 | 16.11° C | 66% | 1022.7 hPa | 0 mm | - | 0 W/m² | - |
| 1787509069 | 16.67° C | 65% | 1022.7 hPa | 0 mm | - | 0 W/m² | - |
| 1787508469 | 16.67° C | 64% | 1022.7 hPa | 0 mm | - | 7 W/m² | - |
| 1787507869 | 16.67° C | 64% | 1022.9 hPa | 0 mm | - | 12 W/m² | - |
| 1787507269 | 17.22° C | 62% | 1022.8 hPa | 0 mm | - | 26 W/m² | - |
* Rain latest hour (hover to see other rain measurements)
** Current wind speed in m/s (hover to see current wind gust speed)